Tracking 19638 objects as of 20-May-2019
HD Live streaming from Space Station
objects crossing your sky now

FENGYUN 1C DEB

Track FENGYUN 1C DEB now!
10-day predictions


NORAD ID: 30471
Int'l Code: 1999-025AGJ
Perigee: 822.6 km
Apogee: 963.1 km
Inclination: 99.2 °
Period: 102.7 minutes
Semi major axis: 7263 km
RCS: 0.033 m2 (small)
Launch date: May 10, 1999
Source: People's Republic of China (PRC)
Launch site: Taiyaun Space Center, China (TSC)

Note: This is SATELLITE DEBRIS
aabbcc
Your satellite tracking list
Your tracking list is empty




NASA's NSSDC Master Catalog

Two Line Element Set (TLE):
1 30471U 99025AGJ 19140.07056132  .00000299  00000-0  21532-3 0  9995
2 30471  99.1920 180.6735 0096714  82.5508 308.2316 14.02350171627666
Source of the keplerian elements: AFSPC